[[{"header":{"parameterUnit":"m.s-1","parameterCategory":1,"la1":30.2991,"la2":30.254,"lo1":-89.0895,"lo2":-89.0444,"dy":0.0017,"dx":0.0017,"nx":28,"ny":28,"refTime":"2023-10-12T09:00:00:Z","depth":0,"parameterNumber":2,"parameterNumberName":"U-component_of_WINDS"},"data":[0,0,0,0,0,0,0,0,0,0,0,0,0,0,0,0,0,0,0,0,0,0,0,0,0,0,0,0,0,0,0,0,0,0,0,0,0,0,0,0,0,0,0,0,0,0,0,0,0,0,0,0,0,0,0,0,0,0,-1.2244,-1.2245,0,-1.2329,-1.233,-1.2331,-1.2316,-1.2314,-1.2313,-1.2312,-1.24,-1.2403,-1.2407,0,0,0,0,0,0,0,0,0,0,0,0,0,-1.2067,-1.207,-1.2244,-1.2245,-1.2246,-1.2329,-1.233,-1.2332,-1.2316,-1.2314,-1.2313,-1.2311,-1.2398,-1.2403,-1.2407,0,0,0,0,0,0,0,0,0,0,0,0,0,-1.2147,-1.2071,-1.2244,-1.2248,-1.225,-1.2329,-1.233,-1.2332,-1.2317,-1.2314,-1.2312,-1.231,-1.2397,-1.2402,-1.2408,-1.2488,0,0,-1.2425,-1.2428,0,0,0,0,0,0,0,0,-1.2143,-1.2154,-1.2247,-1.2248,-1.225,-1.231,-1.23,-1.2384,-1.2317,-1.2291,-1.2311,-1.2309,-1.2372,-1.2379,-1.24,-1.2492,-1.2496,-1.2426,-1.2429,-1.2432,-1.2433,0,0,0,0,0,0,0,-1.2137,-1.215,-1.2278,-1.2248,-1.225,-1.2246,-1.2255,-1.2316,-1.2343,-1.2293,-1.2292,-1.2303,-1.2372,-1.2395,-1.2402,-1.2497,-1.2426,-1.2431,-1.2434,-1.2436,-1.2659,-1.2661,0,0,0,0,0,0,-1.213,-1.2145,-1.2275,-1.228,-1.2189,-1.2251,-1.2261,-1.2293,-1.2342,-1.2348,-1.2305,-1.2302,-1.2386,-1.2396,-1.2405,-1.2502,-1.2432,-1.2437,-1.244,-1.2656,-1.2659,-1.2662,0,0,0,0,0,0,-1.2126,-1.2142,-1.2271,-1.2213,-1.2229,-1.2257,-1.2292,-1.2296,-1.2318,-1.2351,-1.2356,-1.2323,-1.2385,-1.2397,-1.2468,-1.2505,-1.2439,-1.2445,-1.2653,-1.2657,-1.2661,-1.2697,0,0,0,0,0,0,-1.2121,-1.2141,-1.2171,-1.2213,-1.2232,-1.2333,-1.2295,-1.2299,-1.2328,-1.2325,-1.2369,-1.2375,-1.2384,-1.2459,-1.2473,-1.2511,-1.2449,-1.265,-1.2655,-1.266,-1.2692,-1.2701,-1.2709,0,0,0,0,0,-1.2115,-1.2178,-1.2173,-1.2189,-1.2271,-1.2335,-1.2345,-1.2355,-1.2331,-1.2362,-1.2383,-1.2373,-1.2498,-1.2467,-1.2482,-1.2523,-1.2648,-1.2654,-1.2659,-1.2688,-1.2699,-1.2708,0,0,0,0,0,0,-1.2141,-1.2184,-1.2179,-1.2257,-1.2292,-1.2332,-1.2372,-1.2366,-1.2409,-1.2404,-1.2414,-1.2425,-1.2496,-1.2516,-1.248,-1.2602,-1.257,-1.2579,-1.2587,-1.2597,-1.2605,-1.2599,-1.2454,0,0,0,0,0,-1.2155,-1.2203,-1.2238,-1.2304,-1.2322,-1.2344,-1.2372,-1.2376,-1.2413,-1.2428,-1.2454,-1.249,-1.2537,-1.2568,-1.2614,-1.2695,-1.2704,-1.273,-1.2739,-1.2745,-1.2753,-1.2797,-1.2809,-1.2681,-1.2681,-1.2681,0,0,-1.2186,-1.2216,-1.2246,-1.231,-1.2338,-1.2387,-1.2357,-1.241,-1.2447,-1.2436,-1.2504,-1.2524,-1.2565,-1.2641,-1.2675,-1.266,-1.279,-1.2752,-1.2757,-1.2762,-1.2804,-1.2816,-1.2827,-1.2685,-1.2684,-1.2683,0,0,-1.2268,-1.2295,-1.2353,-1.2381,-1.2423,-1.2437,-1.2451,-1.2491,-1.2504,-1.2572,-1.2565,-1.2608,-1.269,-1.2719,-1.2745,-1.2836,-1.2829,-1.2851,-1.2894,-1.2937,-1.2947,-1.2956,-1.2988,-1.3,-1.2859,-1.2859,-1.2859,0,-1.2301,-1.2375,-1.2383,-1.2438,-1.2466,-1.2458,-1.2516,-1.2543,-1.2598,-1.2618,-1.26,-1.2701,-1.2729,-1.2811,-1.2833,-1.2854,-1.287,-1.2846,-1.2945,-1.2954,-1.2962,-1.2993,-1.3006,-1.2861,-1.2861,-1.2861,-1.286,0,-1.2414,-1.2465,-1.2507,-1.2559,-1.2592,-1.2649,-1.2665,-1.2698,-1.2699,-1.2714,-1.2783,-1.2815,-1.2867,-1.2887,-1.2888,-1.2969,-1.2958,-1.2942,-1.291,-1.2977,-1.3006,-1.3018,-1.2865,-1.2864,-1.2863,-1.2862,0,0,-1.2515,-1.257,-1.2586,-1.2609,-1.2654,-1.2694,-1.275,-1.28,-1.2827,-1.2865,-1.2912,-1.298,-1.2966,-1.2995,-1.3,-1.3037,-1.3107,-1.3016,-1.3018,-1.3032,-1.3197,-1.3209,-1.3222,-1.3102,-1.3104,-1.3106,-1.3194,0,-1.26,-1.2698,-1.2707,-1.2794,-1.2842,-1.2834,-1.2882,-1.2915,-1.2931,-1.2973,-1.2991,-1.3039,-1.3017,-1.3034,-1.3071,-1.3091,-1.314,-1.3084,-1.3145,-1.3147,-1.3135,-1.3238,-1.325,-1.3332,-1.3205,-1.3207,-1.3208,0,-1.2714,-1.2754,-1.2847,-1.2885,-1.2905,-1.2948,-1.2994,-1.3035,-1.3072,-1.308,-1.3112,-1.3112,-1.3169,-1.3134,-1.3212,-1.3173,-1.3199,-1.3212,-1.3215,-1.3222,-1.3182,-1.3246,-1.3358,-1.337,-1.3227,-1.3225,-1.3224,0,-1.2778,-1.2856,-1.2921,-1.2941,-1.2987,-1.3018,-1.3038,-1.3073,-1.3102,-1.3142,-1.3161,-1.3208,-1.3233,-1.3269,-1.3281,-1.3254,-1.3358,-1.3324,-1.3367,-1.3367,-1.339,-1.3388,-1.3506,-1.3406,-1.3406,-1.3405,-1.3405,0,-1.2873,-1.2929,-1.295,-1.299,-1.3053,-1.3062,-1.3125,-1.3143,-1.3174,-1.3218,-1.3214,-1.3255,-1.3268,-1.3311,-1.3321,-1.3384,-1.3395,-1.3404,-1.3406,-1.3404,-1.3403,-1.3421,-1.3416,-1.3409,-1.3408,-1.3407,-1.3407,0,-1.2955,-1.2971,-1.3041,-1.3079,-1.309,-1.3135,-1.3167,-1.3205,-1.322,-1.3275,-1.3288,-1.3312,-1.3362,-1.3377,-1.3438,-1.3444,-1.3518,-1.3515,-1.3505,-1.3506,-1.3547,-1.3543,-1.3681,-1.37,-1.3587,-1.3588,-1.3589,0,-1.3014,-1.3058,-1.31,-1.3128,-1.315,-1.3197,-1.3226,-1.3237,-1.3268,-1.3312,-1.3345,-1.3395,-1.3435,-1.3516,-1.3538,-1.3585,-1.3583,-1.3628,-1.359,-1.3586,-1.3583,-1.358,-1.3584,-1.3635,-1.3636,-1.3637,-1.3638,0,-1.3118,-1.3124,-1.3167,-1.3212,-1.3248,-1.3284,-1.3319,-1.3343,-1.3358,-1.3393,-1.3445,-1.3476,-1.3537,-1.3587,-1.3633,-1.3654,-1.3649,-1.365,-1.3662,-1.3661,-1.3654,-1.3658,-1.3525,-1.3647,-1.3646,-1.3645,-1.3645,-1.3644,-1.3191,-1.3229,-1.3264,-1.3312,-1.3339,-1.3372,-1.341,-1.3429,-1.3472,-1.3523,-1.3526,-1.3581,-1.3616,-1.3678,-1.3702,-1.3745,-1.3732,-1.375,-1.3754,-1.3759,-1.3762,-1.3647,-1.3754,-1.3753,-1.3753,-1.3753,-1.3753,0,-1.3295,-1.3317,-1.336,-1.3409,-1.3446,-1.3438,-1.3476,-1.3507,-1.3556,-1.3589,-1.3629,-1.3687,-1.3735,-1.376,-1.3808,-1.3837,-1.3836,-1.3849,-1.3847,-1.3852,-1.3771,-1.3756,-1.385,-1.3849,-1.3849,-1.3849,-1.3849,-1.3849,-1.3353,-1.3416,-1.3426,-1.3503,-1.3524,-1.3578,-1.3601,-1.3631,-1.3657,-1.3722,-1.3762,-1.3778,-1.3808,-1.3857,-1.39,-1.3906,-1.3924,-1.3939,-1.3944,-1.3868,-1.3858,-1.3848,-1.3834,-1.3943,-1.3943,-1.4021,-1.4022,-1.4022]},{"header":{"parameterUnit":"m.s-1","parameterCategory":1,"la1":30.2991,"la2":30.254,"lo1":-89.0895,"lo2":-89.0444,"dy":0.0017,"dx":0.0017,"nx":28,"ny":28,"refTime":"2023-10-12T09:00:00:Z","depth":0,"parameterNumber":3,"parameterNumberName":"V-component_of_WINDS"},"data":[0,0,0,0,0,0,0,0,0,0,0,0,0,0,0,0,0,0,0,0,0,0,0,0,0,0,0,0,0,0,0,0,0,0,0,0,0,0,0,0,0,0,0,0,0,0,0,0,0,0,0,0,0,0,0,0,0,0,-2.8591,-2.8591,0,-2.8625,-2.8625,-2.8626,-2.8596,-2.8595,-2.8593,-2.8592,-2.8626,-2.8628,-2.863,0,0,0,0,0,0,0,0,0,0,0,0,0,-2.8497,-2.8499,-2.8591,-2.8591,-2.8592,-2.8625,-2.8625,-2.8626,-2.8596,-2.8595,-2.8593,-2.8592,-2.8625,-2.8627,-2.863,0,0,0,0,0,0,0,0,0,0,0,0,0,-2.8535,-2.8499,-2.8591,-2.8581,-2.858,-2.8625,-2.8625,-2.8626,-2.8596,-2.8595,-2.8593,-2.8591,-2.8624,-2.8627,-2.863,-2.8685,0,0,-2.8639,-2.8641,0,0,0,0,0,0,0,0,-2.8533,-2.8538,-2.8582,-2.8582,-2.8581,-2.8604,-2.8604,-2.8646,-2.8597,-2.859,-2.8592,-2.859,-2.862,-2.8623,-2.8634,-2.8687,-2.8688,-2.864,-2.8641,-2.8643,-2.8644,0,0,0,0,0,0,0,-2.853,-2.8537,-2.8604,-2.8582,-2.8582,-2.8574,-2.8577,-2.8612,-2.8615,-2.8591,-2.8589,-2.8593,-2.8619,-2.8631,-2.8634,-2.8689,-2.864,-2.8642,-2.8644,-2.8645,-2.8788,-2.8789,0,0,0,0,0,0,-2.8529,-2.8535,-2.8603,-2.8605,-2.8552,-2.8577,-2.8581,-2.8599,-2.8614,-2.8615,-2.8595,-2.8592,-2.8626,-2.8631,-2.8635,-2.87,-2.8643,-2.8646,-2.8647,-2.8786,-2.8788,-2.879,0,0,0,0,0,0,-2.8527,-2.8535,-2.8602,-2.8569,-2.8577,-2.858,-2.8601,-2.86,-2.8612,-2.8617,-2.8618,-2.8606,-2.8625,-2.8631,-2.8673,-2.87,-2.8647,-2.865,-2.8783,-2.8786,-2.8789,-2.883,0,0,0,0,0,0,-2.8524,-2.8535,-2.8557,-2.857,-2.8579,-2.864,-2.8603,-2.8602,-2.8617,-2.8614,-2.8628,-2.8629,-2.8624,-2.8668,-2.8676,-2.8704,-2.8652,-2.8781,-2.8785,-2.8788,-2.8826,-2.8834,-2.8841,0,0,0,0,0,-2.8521,-2.8567,-2.8558,-2.8566,-2.8607,-2.8642,-2.8646,-2.8641,-2.862,-2.8641,-2.8644,-2.8628,-2.8696,-2.8673,-2.8681,-2.871,-2.8779,-2.8784,-2.8788,-2.8823,-2.8833,-2.8841,0,0,0,0,0,0,-2.8556,-2.8569,-2.8559,-2.861,-2.8625,-2.8636,-2.8663,-2.8651,-2.8672,-2.8668,-2.8659,-2.8663,-2.8707,-2.8713,-2.8686,-2.8764,-2.8734,-2.874,-2.8758,-2.8767,-2.8774,-2.8772,-2.8655,0,0,0,0,0,-2.857,-2.8598,-2.8607,-2.8652,-2.866,-2.866,-2.8675,-2.867,-2.8684,-2.869,-2.8697,-2.8711,-2.8735,-2.8752,-2.8775,-2.8827,-2.8829,-2.8851,-2.8858,-2.8864,-2.8869,-2.8896,-2.8905,-2.8805,-2.8805,-2.8804,0,0,-2.8599,-2.8609,-2.8627,-2.8659,-2.867,-2.8698,-2.8666,-2.8697,-2.8718,-2.8695,-2.8735,-2.874,-2.8755,-2.8802,-2.8823,-2.8809,-2.8898,-2.887,-2.8875,-2.8877,-2.8901,-2.8911,-2.8919,-2.8808,-2.8807,-2.8807,0,0,-2.8665,-2.8677,-2.8714,-2.8725,-2.8742,-2.8742,-2.8751,-2.8764,-2.8767,-2.8807,-2.879,-2.8813,-2.8856,-2.8867,-2.8878,-2.8948,-2.8933,-2.8955,-2.8993,-2.9019,-2.9027,-2.9034,-2.9057,-2.9066,-2.8961,-2.8961,-2.8961,0,-2.8699,-2.8741,-2.8735,-2.8767,-2.8781,-2.8762,-2.8799,-2.881,-2.8833,-2.8843,-2.8826,-2.8878,-2.8887,-2.8936,-2.8953,-2.8963,-2.8972,-2.8954,-2.9026,-2.9033,-2.904,-2.9062,-2.9071,-2.8963,-2.8963,-2.8963,-2.8963,0,-2.8781,-2.881,-2.8839,-2.8862,-2.8879,-2.8913,-2.8911,-2.8929,-2.8921,-2.8923,-2.8963,-2.8973,-2.8997,-2.9008,-2.9001,-2.9055,-2.9045,-2.9028,-2.8998,-2.9052,-2.9073,-2.9081,-2.8967,-2.8966,-2.8965,-2.8965,0,0,-2.8871,-2.8889,-2.8899,-2.8909,-2.8925,-2.8948,-2.8981,-2.9004,-2.9019,-2.9036,-2.9062,-2.9098,-2.9082,-2.9095,-2.9088,-2.9111,-2.9164,-2.9091,-2.9091,-2.9103,-2.9222,-2.9235,-2.9245,-2.9154,-2.9156,-2.9157,-2.9221,0,-2.8937,-2.8995,-2.899,-2.9045,-2.9071,-2.9052,-2.9081,-2.9094,-2.9095,-2.9117,-2.9119,-2.9144,-2.9121,-2.9129,-2.915,-2.9153,-2.9188,-2.9148,-2.9178,-2.9179,-2.9174,-2.9256,-2.9269,-2.9329,-2.9229,-2.923,-2.9231,0,-2.9022,-2.9041,-2.9099,-2.911,-2.9121,-2.9147,-2.9167,-2.9189,-2.9202,-2.9202,-2.9215,-2.9205,-2.9237,-2.9207,-2.925,-2.9223,-2.9235,-2.9238,-2.924,-2.9242,-2.9208,-2.9259,-2.9348,-2.9356,-2.9244,-2.9243,-2.9242,0,-2.908,-2.9121,-2.916,-2.9169,-2.9183,-2.9201,-2.9208,-2.922,-2.9234,-2.9251,-2.926,-2.9281,-2.9293,-2.9309,-2.9304,-2.9282,-2.9347,-2.9317,-2.9347,-2.9347,-2.9361,-2.936,-2.9452,-2.937,-2.937,-2.937,-2.937,0,-2.9154,-2.919,-2.9186,-2.921,-2.9249,-2.9242,-2.928,-2.9284,-2.9294,-2.9318,-2.9303,-2.9326,-2.9318,-2.934,-2.9336,-2.9372,-2.9377,-2.9377,-2.9375,-2.9378,-2.9377,-2.9385,-2.938,-2.9372,-2.9372,-2.9371,-2.9371,0,-2.9226,-2.9225,-2.9266,-2.9276,-2.9279,-2.9307,-2.9315,-2.9337,-2.9338,-2.9368,-2.9374,-2.9375,-2.9399,-2.9396,-2.9423,-2.9421,-2.9464,-2.9458,-2.946,-2.9458,-2.9488,-2.9485,-2.9587,-2.9599,-2.951,-2.9511,-2.9512,0,-2.9273,-2.93,-2.9312,-2.9327,-2.9335,-2.936,-2.9374,-2.9367,-2.9382,-2.9399,-2.9418,-2.9442,-2.946,-2.95,-2.9502,-2.9522,-2.9516,-2.955,-2.9519,-2.952,-2.9515,-2.9513,-2.9515,-2.9556,-2.9557,-2.9558,-2.9559,0,-2.9356,-2.9354,-2.9375,-2.9396,-2.9413,-2.9429,-2.9443,-2.9456,-2.9451,-2.9468,-2.9493,-2.9508,-2.9535,-2.9558,-2.9577,-2.9583,-2.9569,-2.9568,-2.9576,-2.9579,-2.9578,-2.9577,-2.9476,-2.9566,-2.9565,-2.9565,-2.9564,-2.9564,-2.9415,-2.9438,-2.945,-2.9474,-2.9484,-2.9497,-2.9518,-2.9521,-2.9542,-2.9564,-2.9559,-2.9586,-2.9597,-2.9622,-2.9629,-2.965,-2.9638,-2.9649,-2.9652,-2.9655,-2.9658,-2.9575,-2.9654,-2.9654,-2.9653,-2.9653,-2.9653,0,-2.9496,-2.9503,-2.9525,-2.9545,-2.9564,-2.955,-2.9565,-2.9581,-2.9606,-2.9618,-2.9636,-2.9663,-2.9685,-2.9689,-2.9709,-2.9725,-2.9719,-2.9731,-2.9729,-2.973,-2.9668,-2.9659,-2.9735,-2.9735,-2.9735,-2.9735,-2.9735,-2.9735,-2.9541,-2.9577,-2.9577,-2.9618,-2.9624,-2.9651,-2.9661,-2.9672,-2.9682,-2.9714,-2.9732,-2.9734,-2.9742,-2.9762,-2.9781,-2.9782,-2.9789,-2.9803,-2.9801,-2.9743,-2.9735,-2.9727,-2.9718,-2.9805,-2.9805,-2.986,-2.9861,-2.9861]}]]